SCP
0 0 0 0 0 0 0 0 0 0 0 0 0 0 0 0 0 0 0 0 -0 0 0 0 0 0 0 0 0 0 0 0 0 0 0 0 -0 0 0 0 0 0 0 0 0 0 0 0 0 0 0 0 0 0
0 0 0 0 0 0 0 0 0 0 0 0 -0 0 0 0 0 0 0 0 0 0 0 0 -0 -0 0 0 0 0 0 0 0 0 0 0 0 0 0 0 0 0 0 0 0 0 0 0 0 0 0 0 0 0
0 0 0 0 0 0 0 0 0 0 0 0 -0 0 0 0 0 0 0 0 0 -0 0 0 0 0 -0 -0 0 0 0 0 -0 -0 0 0 0 0 0 0 0 0 0 0 0 0 0 0 0 0 0 0 0 0
0 0 0 0 0 0 0 0 0 0 0 0 0 0 0 0 0 0 0 0 0 0 0 0 0 0 0 0 -0 0 -0 -0 0 0 0 0 0 0 0 0 0 0 0 0 0 0 0 0 0 0 0 0 0 0
0 0 0 0 0 0 0 0 0 0 0 0 0 0 0 0 0 0 0 0 0 0 0 0 0 0 -0 -0 0 0 0 0 0 0 0 0 0 0 0 0 0 0 0 0 0 0 0 0 0 0 0 0 0 0
0 0 0 0 0 0 0 0 0 0 0 0 0 0 0 0 0 0 0 0 0 0 0 0 0 0 0 0 0 0 0 0 0 0 0 0 0 0 0 0 0 0 0 0 0 0 0 0 0 0 0 0 0 0
0 0 0 0 0 0 0 0 0 0 0 0 0 0 0 0 0 0 0 0 0 0 0 0 0 0 0 0 0 0 0 0 0 0 0 0 0 0 0 0 0 0 0 0 0 0 0 0 0 0 0 0 0 0
0 0 0 0 0 0 0 0 0 0 0 0 0 0 0 0 0 0 0 0 0 0 0 0 0 0 0 0 0 0 0 0 0 0 0 0 0 0 0 0 0 0 0 0 0 0 0 0 0 0 0 0 0 0
0 0 0 0 0 0 0 0 0 0 0 0 0 0 0 0 0 0 0 0 0 0 0 0 0 0 0 0 0 0 0 0 0 0 0 0 0 0 0 0 0 0 0 0 0 0 -0 0 0 0 0 0 0 0
0 0 0 0 0 0 0 0 0 0 0 0 0 0 0 0 0 0 0 0 0 0 0 0 0 0 0 0 0 0 0 0 0 0 0 0 0 0 0 0 0 0 0 -0 -0 -0 0 0 0 0 0 0 0 0
0 0 0 0 0 0 0 0 0 0 0 0 0 0 0 0 0 0 0 0 0 0 0 0 0 0 0 0 0 0 0 0 0 0 0 0 0 0 0 0 0 0 -0 0 0 0 0 0 0 0 0 0 0 0
0 0 0 0 0 0 0 0 0 0 0 0 0 0 0 0 0 0 0 0 0 0 0 0 0 0 0 0 0 0 0 0 0 0 0 0 0 0 0 0 0 -0 -0 0 0 0 0 0 0 0 0 0 0 0
0 0 0 0 0 0 0 0 0 0 0 0 0 0 0 0 0 0 0 0 0 0 0 0 0 0 0 0 0 0 0 0 0 0 0 0 0 0 0 0 -0 -0 -0 0 0 0 -0 0 0 0 0 0 0 -0
0 0 0 0 0 0 0 0 0 0 0 0 0 0 0 0 0 0 0 0 0 0 0 0 0 0 0 0 0 0 0 0 0 0 0 0 0 0 0 0 -0 -0 0 0 -0 -0 -0 0 0 0 0 0 0 -0
0 0 0 0 0 0 0 0 0 0 0 0 0 0 0 0 0 0 0 0 0 0 0 0 0 0 0 0 0 0 0 0 0 0 0 0 0 0 0 0 -0 -0 0 0 0 0 0 0 -0 -0 0 0 0 0
0 0 0 0 0 0 0 0 0 0 0 0 0 0 0 0 0 0 0 0 0 0 0 0 0 0 0 0 0 0 0 0 0 0 0 0 0 0 0 0 0 -0 0 0 0 0 0 -0 -0 -0 0 -0 0 0
0 0 0 0 0 0 0 0 0 0 0 0 0 0 0 0 0 0 0 0 0 0 0 0 0 0 0 0 0 0 0 0 0 0 0 0 0 0 0 0 0 0 0 0 0 0 0 -0 -0 -0 -0 0 -0 0
0 0 0 0 0 0 0 0 0 0 0 0 0 -0 -0 0 0 0 0 0 0 0 0 0 0 0 0 0 0 0 0 0 0 0 0 0 0 0 0 0 0 0 0 0 0 -0 -0 -0 -0 -0 -0 0 0 0
0 0 0 0 0 0 0 0 0 0 0 0 0 0 0 0 0 0 0 0 0 0 0 0 0 0 0 0 0 0 0 0 0 0 0 0 0 0 0 0 0 0 0 0 0 0 0 -0 0 0 0 -0 0 0
0 0 0 0 0 0 0 0 0 0 0 0 0 0 0 0 0 0 -0 0 0 0 0 0 0 0 0 0 0 0 0 0 0 0 0 0 0 0 0 0 0 0 0 0 0 0 0 0 0 0 0 -0 0 0
0 0 0 0 0 0 0 0 0 0 0 0 0 0 0 0 0 0 -0 -0 0 0 0 0 0 0 0 0 0 0 0 0 0 0 0 0 0 0 0 0 0 0 0 0 0 0 0 0 0 0 0 -0 0 0
0 0 0 0 0 0 0 0 0 0 0 0 0 0 0 0 -0 0 0 0 0 0 0 0 0 0 0 0 0 0 0 0 0 0 0 0 0 0 0 0 0 0 0 0 0 0 0 0 0 0 0 0 0 0
0 0 0 0 0 0 0 0 0 0 0 0 0 0 0 0 0 0 0 0 0 0 0 0 0 0 0 0 0 0 0 0 0 0 0 0 0 0 0 0 0 0 0 0 0 0 0 0 0 0 0 0 0 0
0 0 0 0 0 0 0 0 0 0 0 0 0 0 0 0 0 0 0 0 0 0 0 0 0 0 0 0 0 0 0 0 0 0 0 0 0 0 0 0 0 0 0 0 0 0 0 0 0 0 0 -0 0 0
0 0 0 0 0 0 0 0 0 0 0 0 0 0 0 0 0 0 0 0 0 0 0 0 0 0 0 0 0 0 0 0 0 0 0 0 0 0 0 0 0 0 0 0 0 0 0 0 0 0 0 -0 -0 0
0 0 0 0 0 0 0 0 0 0 0 0 0 0 0 0 0 0 0 0 0 0 0 0 0 0 0 0 0 0 0 0 0 0 0 0 0 0 0 0 0 0 0 0 0 0 0 0 0 0 0 -0 0 0
0 0 0 0 0 0 0 0 0 0 0 0 0 0 0 0 0 0 0 0 0 0 0 0 0 0 0 0 0 0 -0 0 0 0 0 0 0 0 0 0 0 0 0 0 0 0 0 0 0 0 0 -0 -0 -0
0 0 0 0 0 0 0 0 0 0 0 0 0 0 0 0 0 0 0 0 0 0 0 0 0 0 0 0 0 0 0 0 0 0 0 0 0 0 0 0 0 0 0 0 0 0 0 0 0 0 0 0 0 0
0 0 0 0 0 0 0 0 0 0 0 0 0 0 0 0 0 0 0 0 0 0 0 0 0 0 0 0 0 0 0 0 0 0 0 0 0 0 0 0 0 0 0 0 0 0 0 0 0 0 0 0 0 0
0 0 0 0 0 0 0 0 0 0 0 0 0 0 0 0 0 0 0 0 0 0 0 0 0 0 0 0 0 0 0 0 0 0 0 0 0 0 0 0 0 0 0 0 0 0 0 0 0 0 0 0 0 0
-0 0 0 0 0 -0 0 0 0 0 0 0 0 0 0 0 0 0 0 0 0 0 0 0 0 0 0 0 0 0 0 0 0 0 0 0 0 0 0 0 0 0 0 0 0 0 0 0 -0 -0 -0 -0 -0 0
0 0 -0 -0 0 0 0 0 0 0 0 0 0 0 0 0 0 0 0 0 0 0 0 0 0 0 0 0 0 0 0 0 0 0 0 0 0 0 0 0 0 0 0 0 0 0 0 0 0 0 0 -0 -0 0
0 0 0 0 0 0 0 0 0 0 0 -0 -0 -0 0 0 0 0 0 0 0 0 0 0 0 0 0 0 0 0 0 0 0 0 0 0 0 0 0 0 0 0 0 0 0 0 0 0 0 0 0 0 0 0
Wind_Speed_500mb
44 43 37 34 39 41 36 29 27 29 31 29 27 23 16 9 6 13 10 10 6 3 2 2 4 3 0 2 5 8 8 5 9 8 6 5 7 4 7 4 9 7 7 4 3 6 3 7 5 11 11 10 9 11
32 31 37 39 36 30 24 23 25 26 27 28 26 20 16 9 9 14 7 12 9 4 3 8 7 7 5 4 6 6 5 3 8 6 3 4 8 6 7 2 2 4 8 7 9 8 8 7 11 11 7 9 10 11
35 29 23 21 21 20 21 22 22 22 23 25 24 17 15 12 13 19 17 11 4 6 11 10 9 9 9 8 3 8 2 2 1 3 8 5 8 6 5 2 7 6 2 7 8 8 9 11 13 13 14 13 11 12
22 19 19 20 15 16 17 17 17 17 18 20 23 13 14 13 16 21 21 12 9 3 8 5 2 3 14 11 14 6 3 4 3 5 9 7 7 2 3 6 11 11 3 9 5 9 10 11 12 15 15 13 13 12
24 19 13 10 7 6 9 11 12 14 14 16 23 12 13 15 18 22 22 14 14 3 6 2 5 8 5 11 12 10 5 2 5 7 11 8 5 8 5 7 13 6 7 6 6 6 6 13 18 15 11 10 10 10
21 17 13 11 6 4 6 8 10 12 12 16 18 6 12 18 24 26 7 11 11 6 6 4 2 6 8 14 13 9 6 5 6 7 5 5 2 7 5 4 10 6 5 5 8 13 18 26 20 14 12 10 10 13
21 14 10 9 3 7 10 10 10 10 9 15 7 15 21 27 32 8 0 6 24 11 5 6 6 7 12 15 14 12 8 7 9 4 8 6 8 9 7 9 16 10 15 19 23 25 20 18 11 14 12 12 16 16
18 13 8 6 6 10 9 9 7 6 8 14 18 25 24 26 23 11 13 6 24 12 5 6 3 10 17 18 17 14 11 7 9 6 5 12 7 10 6 7 12 17 23 22 11 8 14 21 21 17 12 12 15 17
20 15 8 6 7 7 4 3 4 3 9 22 32 30 19 16 14 10 5 7 16 4 5 6 6 5 19 13 9 13 9 9 6 9 7 7 8 10 1 12 19 26 17 22 19 20 22 20 19 14 11 12 16 22
18 13 7 4 5 3 8 14 13 8 30 36 33 8 7 12 11 12 3 4 6 9 10 11 7 6 17 19 20 11 11 6 6 7 5 9 9 5 5 7 17 26 22 25 23 18 18 18 16 13 9 14 19 23
16 12 6 1 2 6 9 14 14 23 35 24 8 5 12 19 11 7 7 8 9 9 14 16 17 10 15 17 11 10 4 5 6 9 6 8 6 11 4 10 15 26 26 19 11 11 12 12 15 15 15 21 25 21
16 12 7 3 2 10 8 14 19 25 18 14 11 17 23 7 6 8 7 7 11 8 13 21 24 17 14 9 11 12 6 6 6 10 7 6 9 5 5 13 26 28 26 18 13 16 14 16 16 16 22 27 26 18
16 15 11 5 5 9 8 14 13 26 21 23 6 8 6 6 4 10 12 8 8 11 11 14 19 25 12 13 5 10 9 8 6 8 6 4 11 11 16 25 30 27 23 18 17 17 17 17 17 22 29 30 23 14
15 17 11 6 6 9 11 17 15 19 24 7 7 5 9 8 10 11 15 8 9 9 8 19 28 18 11 14 7 7 4 5 8 8 8 14 13 19 24 27 30 27 23 19 18 17 17 17 22 28 32 27 20 14
13 15 13 7 7 10 13 16 22 27 11 7 5 9 12 15 14 13 15 17 15 12 15 23 12 12 17 7 9 6 9 9 7 6 11 10 19 27 29 30 29 26 21 18 17 16 16 20 28 32 30 24 18 13
13 16 15 12 12 12 16 18 29 17 8 5 7 6 13 17 18 18 19 21 16 16 21 18 2 5 8 7 13 12 6 6 6 8 8 9 26 30 32 30 26 23 19 18 16 17 19 23 29 33 27 21 18 8
20 11 19 16 12 14 19 21 20 10 8 7 8 13 15 18 19 15 12 6 9 20 19 8 10 7 7 10 12 9 6 9 9 8 7 15 31 34 32 30 27 23 19 17 15 17 20 24 30 31 26 20 13 4
13 19 20 17 13 10 19 12 8 10 9 13 11 12 14 12 12 5 5 4 4 9 16 7 11 8 7 9 9 10 17 15 12 8 9 19 29 31 30 29 25 20 17 15 15 16 21 25 31 31 24 19 11 5
16 19 19 16 14 8 9 8 8 6 12 8 12 10 8 1 2 6 4 3 1 8 5 6 5 7 6 6 16 17 16 14 11 7 9 16 26 30 28 27 23 20 16 14 14 13 18 25 29 30 25 20 15 12
10 15 16 14 17 6 4 6 6 4 5 4 6 1 1 10 2 8 4 9 12 6 9 6 4 5 12 17 16 17 15 13 11 10 12 15 23 26 27 26 22 20 15 13 12 14 19 24 29 31 27 21 19 15
13 11 15 17 12 4 4 3 7 4 1 1 6 8 8 16 7 7 10 7 5 2 5 7 12 15 16 16 13 12 11 12 11 10 7 12 19 25 27 25 25 20 15 13 11 13 20 22 30 33 29 22 21 15
11 16 14 4 2 3 3 3 1 2 1 5 7 6 9 16 14 6 1 1 4 7 7 9 10 10 8 8 8 8 6 6 5 3 3 7 17 28 27 27 28 24 18 15 12 11 15 22 28 35 33 27 25 17
17 7 0 3 3 4 1 2 4 2 2 5 3 1 6 5 3 3 1 1 3 3 4 3 3 6 6 6 4 2 2 8 8 9 10 10 12 18 25 28 29 28 24 19 15 12 12 21 31 36 35 31 25 19
8 2 2 3 5 4 5 6 6 6 3 11 11 8 6 3 4 2 3 3 3 1 0 3 4 7 7 7 6 3 5 11 17 18 20 20 21 21 25 30 31 27 22 20 18 14 11 12 23 39 39 35 30 24
1 2 2 5 4 5 7 5 7 9 9 10 5 5 5 4 4 4 2 1 1 1 1 3 6 8 8 6 5 5 11 21 24 20 21 25 25 25 24 29 34 31 27 25 21 17 15 14 14 27 40 41 37 31
5 4 3 1 3 3 1 6 3 3 4 4 4 5 3 2 2 1 2 3 1 1 1 2 6 9 8 6 5 7 20 23 13 10 15 20 25 32 32 39 42 37 33 27 20 18 17 18 17 24 38 43 44 35
1 3 3 3 2 2 5 4 5 4 4 4 6 8 6 2 3 4 4 4 5 1 2 4 4 10 9 8 3 8 17 15 11 15 17 17 24 29 34 38 47 39 35 29 22 16 16 17 16 22 32 41 41 40
2 3 1 4 3 1 1 4 3 4 4 5 4 5 5 7 3 5 3 5 5 2 1 2 2 6 10 9 5 9 13 14 6 3 12 17 16 21 26 33 41 39 29 25 21 16 15 13 13 21 32 39 37 35
0 1 1 3 3 2 1 3 3 3 3 2 3 2 1 2 1 1 4 6 9 8 9 8 7 5 5 5 5 7 9 12 8 11 8 15 18 12 24 26 42 50 41 21 21 21 16 11 10 18 29 35 35 33
4 3 3 1 3 3 5 6 6 5 5 4 5 6 8 8 9 16 14 14 15 15 13 13 12 11 12 11 10 8 6 8 8 16 9 15 17 18 17 20 21 29 32 28 33 33 25 15 8 11 26 31 34 35
4 3 4 3 4 2 3 4 7 8 7 7 14 13 14 11 10 9 6 10 12 12 12 13 17 14 13 13 15 15 14 13 11 9 13 5 13 12 12 9 9 10 20 27 29 36 35 26 18 14 15 25 37 37
5 6 7 8 6 5 4 1 2 2 2 4 4 3 3 2 3 1 9 7 5 12 16 19 20 18 18 19 13 11 14 10 12 13 13 18 10 3 2 3 1 8 11 17 20 24 31 29 27 23 19 18 21 30
8 9 9 8 4 3 4 4 3 2 1 2 3 5 5 6 4 5 10 15 10 11 11 14 23 23 21 19 20 20 19 19 18 16 15 20 21 21 19 15 10 12 10 9 12 13 19 28 30 29 26 23 20 18
Wind_Direction_500mb
248 249 249 250 256 272 282 282 289 297 302 306 306 305 301 292 247 191 204 205 146 263 116 85 52 45 82 336 307 43 240 153 232 250 271 154 267 108 262 20 334 333 324 360 300 239 121 48 183 316 59 75 48 19
228 229 236 250 260 264 269 281 290 296 300 305 306 300 285 256 216 192 161 204 199 223 305 224 241 252 268 340 338 34 32 336 8 272 227 290 220 214 354 322 153 315 8 338 6 18 93 68 69 89 75 79 40 25
226 236 233 230 238 254 270 281 286 290 296 302 305 296 271 236 211 190 184 180 173 263 257 242 213 247 237 210 158 308 114 18 250 325 334 351 273 307 272 17 295 144 29 306 298 121 114 119 108 101 98 87 61 43
199 186 195 222 239 256 268 275 280 284 291 302 311 291 260 221 202 182 160 178 168 242 270 138 220 234 231 221 186 186 287 300 261 276 267 279 270 280 358 5 282 37 255 329 293 119 132 136 132 126 105 84 62 64
176 183 199 201 201 255 281 286 284 285 290 298 309 282 236 203 185 172 167 168 180 207 333 285 277 216 223 190 184 176 157 281 257 223 224 233 294 258 209 287 264 134 344 322 31 39 15 116 147 134 108 82 69 91
165 179 209 167 187 254 291 299 289 275 279 295 302 247 192 170 149 131 182 223 193 184 273 256 285 183 186 178 180 193 217 292 285 277 247 237 299 269 253 267 96 105 73 49 85 79 95 127 132 126 111 88 91 114
174 177 187 196 220 305 309 304 294 266 262 291 272 161 156 148 147 133 40 203 187 173 243 258 201 188 173 171 191 203 230 273 284 277 237 267 193 229 269 261 127 119 119 119 117 106 110 137 148 133 113 99 110 125
172 179 197 250 302 314 319 311 292 235 252 284 150 139 136 150 140 103 60 64 164 186 228 268 198 197 183 193 196 207 226 227 209 286 225 236 172 228 259 129 135 141 135 131 127 90 112 141 135 133 118 115 125 132
183 195 213 277 311 339 350 80 106 135 290 140 130 133 128 153 175 196 89 59 178 204 264 222 249 153 175 184 172 170 223 226 141 240 214 230 193 223 119 157 161 159 158 152 129 123 128 139 147 142 131 135 140 143
195 207 232 270 335 109 111 113 105 98 131 132 134 142 166 181 179 168 185 203 220 218 231 251 205 211 196 182 190 176 193 254 229 154 149 235 238 151 113 133 163 165 152 147 139 149 156 157 160 153 146 146 147 147
203 209 224 275 16 128 135 135 139 147 152 140 131 139 153 151 143 188 212 220 192 223 211 230 217 206 200 205 177 226 178 168 244 131 248 191 207 134 177 186 159 164 155 151 137 154 159 169 164 157 150 148 148 144
200 201 198 182 181 160 138 166 173 171 161 157 144 129 145 170 189 223 205 184 226 237 192 208 198 206 164 196 223 176 232 185 242 135 237 222 106 107 133 157 161 157 155 144 149 127 128 139 148 149 151 147 146 144
187 187 182 189 192 175 162 167 173 177 179 145 142 154 187 163 214 215 193 210 226 191 202 201 187 176 165 190 212 202 216 210 126 211 219 82 109 118 132 139 143 145 139 135 122 121 126 130 135 143 147 148 144 135
178 184 186 185 176 161 161 173 159 167 165 148 164 170 215 186 233 215 225 253 212 242 219 200 176 195 169 170 165 226 124 223 223 218 201 112 133 137 137 143 141 138 135 130 127 127 129 129 138 143 148 148 142 129
172 181 188 192 182 172 169 162 183 189 178 179 215 215 219 238 254 259 259 253 242 244 207 194 182 221 170 151 200 143 187 230 229 194 99 108 147 145 141 142 140 136 133 129 130 132 135 140 144 147 151 151 147 132
160 167 185 178 160 163 167 166 173 171 180 189 218 253 266 264 267 252 239 240 219 216 191 195 128 194 207 210 181 187 193 233 120 92 104 131 156 150 144 142 138 135 132 131 130 136 139 146 153 155 154 157 153 137
160 179 176 170 167 161 170 161 161 182 209 220 227 234 243 275 280 284 289 241 221 203 201 154 180 188 236 205 166 169 157 86 99 73 71 148 158 153 149 145 141 138 130 130 131 134 143 150 157 159 161 167 165 172
165 175 171 169 160 157 183 175 164 187 230 227 237 233 233 253 282 292 289 273 256 227 193 174 138 217 215 178 142 132 124 113 94 74 82 147 159 156 155 151 148 146 138 134 137 143 149 158 161 163 166 171 165 138
169 175 173 170 161 145 151 200 199 221 228 237 232 257 264 202 82 89 50 358 334 56 132 336 217 203 107 89 127 117 108 103 102 95 105 151 165 162 160 158 155 153 146 144 142 147 162 164 168 170 167 168 159 135
168 166 169 181 169 163 181 188 195 247 201 198 200 91 254 154 118 136 163 191 150 177 201 215 256 71 111 117 113 107 96 82 86 120 123 148 167 169 169 167 167 166 154 153 149 156 164 169 175 173 173 171 165 149
125 150 140 155 172 209 254 191 202 220 269 116 120 124 74 148 193 179 194 230 204 34 112 103 112 107 106 106 96 92 83 75 70 71 94 155 173 173 178 176 175 171 169 167 167 181 174 180 180 179 182 173 175 153
157 139 119 98 193 222 258 207 267 158 223 95 136 158 220 187 182 172 269 158 78 75 87 86 89 101 113 118 117 105 78 42 8 9 12 147 176 184 185 189 186 180 180 178 175 178 181 183 185 182 182 184 180 166
134 132 188 200 218 199 196 137 192 108 170 105 40 255 182 150 89 131 208 74 101 171 153 94 172 172 152 180 155 102 11 2 328 282 259 240 228 202 192 192 195 189 179 181 172 167 176 187 191 186 186 187 188 186
175 213 226 224 218 177 183 197 171 113 57 202 196 163 137 111 148 204 241 211 156 176 296 296 200 191 187 189 201 238 298 314 309 292 254 238 228 223 206 200 189 191 189 192 179 177 183 179 198 195 191 193 196 195
257 211 238 236 213 218 192 197 182 192 176 197 163 127 128 177 206 211 312 355 307 203 288 258 218 222 230 206 216 275 304 301 299 272 238 231 222 217 206 197 195 188 192 189 188 192 199 195 194 196 195 195 197 200
231 193 218 178 153 243 114 172 152 126 143 138 92 116 158 201 240 232 79 47 117 139 342 283 238 222 216 217 243 294 320 325 295 250 224 220 215 209 208 196 190 189 196 192 201 203 209 205 203 199 196 196 195 197
263 115 170 222 262 249 181 139 137 186 172 166 166 169 172 171 200 121 131 126 87 75 1 310 264 215 222 206 223 341 345 321 267 247 244 240 216 210 209 205 193 194 195 195 202 207 207 204 207 200 193 193 197 201
319 329 73 91 174 184 92 141 169 191 160 171 185 181 165 160 170 122 154 199 184 239 346 293 204 210 212 200 223 310 325 337 326 252 247 216 193 198 199 190 183 177 181 190 197 203 193 197 201 191 188 189 192 200
294 281 304 148 146 157 45 17 45 77 63 21 351 12 343 120 161 248 265 248 238 253 256 257 258 230 246 250 263 282 299 333 336 159 120 172 139 144 165 175 192 200 199 203 202 193 186 186 179 181 185 187 190 193
65 355 296 21 317 54 40 20 347 5 335 313 294 291 300 302 291 281 273 277 274 261 247 242 241 236 236 238 247 262 287 290 334 176 62 37 57 90 118 151 169 184 196 208 202 189 191 196 177 173 182 184 189 192
311 292 277 274 300 31 349 328 312 310 315 312 301 290 283 289 293 310 304 264 241 239 239 237 234 229 244 261 265 262 253 272 253 273 229 348 44 63 116 113 122 152 174 179 186 193 198 196 180 174 176 190 197 200
257 266 297 294 302 296 300 265 253 267 325 336 329 330 331 286 247 324 345 358 299 261 250 241 238 257 273 251 240 249 234 240 243 242 240 224 245 276 341 348 46 131 135 162 178 191 199 195 192 186 187 186 192 207
277 284 279 274 254 243 215 231 216 229 123 356 358 355 352 337 9 346 328 335 328 293 261 252 248 247 245 238 235 239 258 264 256 255 267 254 244 248 249 241 256 218 191 177 180 188 200 204 207 203 195 196 199 208
Wind_Speed_850mb
44 43 37 34 39 41 36 29 27 29 31 29 27 23 16 9 6 13 10 10 6 3 2 2 4 3 0 2 5 8 8 5 9 8 6 5 7 4 7 4 9 7 7 4 3 6 3 7 5 11 11 10 9 11
32 31 37 39 36 30 24 23 25 26 27 28 26 20 16 9 9 14 7 12 9 4 3 8 7 7 5 4 6 6 5 3 8 6 3 4 8 6 7 2 2 4 8 7 9 8 8 7 11 11 7 9 10 11
35 29 23 21 21 20 21 22 22 22 23 25 24 17 15 12 13 19 17 11 4 6 11 10 9 9 9 8 3 8 2 2 1 3 8 5 8 6 5 2 7 6 2 7 8 8 9 11 13 13 14 13 11 12
22 19 19 20 15 16 17 17 17 17 18 20 23 13 14 13 16 21 21 12 9 3 8 5 2 3 14 11 14 6 3 4 3 5 9 7 7 2 3 6 11 11 3 9 5 9 10 11 12 15 15 13 13 12
24 19 13 10 7 6 9 11 12 14 14 16 23 12 13 15 18 22 22 14 14 3 6 2 5 8 5 11 12 10 5 2 5 7 11 8 5 8 5 7 13 6 7 6 6 6 6 13 18 15 11 10 10 10
21 17 13 11 6 4 6 8 10 12 12 16 18 6 12 18 24 26 7 11 11 6 6 4 2 6 8 14 13 9 6 5 6 7 5 5 2 7 5 4 10 6 5 5 8 13 18 26 20 14 12 10 10 13
21 14 10 9 3 7 10 10 10 10 9 15 7 15 21 27 32 8 0 6 24 11 5 6 6 7 12 15 14 12 8 7 9 4 8 6 8 9 7 9 16 10 15 19 23 25 20 18 11 14 12 12 16 16
18 13 8 6 6 10 9 9 7 6 8 14 18 25 24 26 23 11 13 6 24 12 5 6 3 10 17 18 17 14 11 7 9 6 5 12 7 10 6 7 12 17 23 22 11 8 14 21 21 17 12 12 15 17
20 15 8 6 7 7 4 3 4 3 9 22 32 30 19 16 14 10 5 7 16 4 5 6 6 5 19 13 9 13 9 9 6 9 7 7 8 10 1 12 19 26 17 22 19 20 22 20 19 14 11 12 16 22
18 13 7 4 5 3 8 14 13 8 30 36 33 8 7 12 11 12 3 4 6 9 10 11 7 6 17 19 20 11 11 6 6 7 5 9 9 5 5 7 17 26 22 25 23 18 18 18 16 13 9 14 19 23
16 12 6 1 2 6 9 14 14 23 35 24 8 5 12 19 11 7 7 8 9 9 14 16 17 10 15 17 11 10 4 5 6 9 6 8 6 11 4 10 15 26 26 19 11 11 12 12 15 15 15 21 25 21
16 12 7 3 2 10 8 14 19 25 18 14 11 17 23 7 6 8 7 7 11 8 13 21 24 17 14 9 11 12 6 6 6 10 7 6 9 5 5 13 26 28 26 18 13 16 14 16 16 16 22 27 26 18
16 15 11 5 5 9 8 14 13 26 21 23 6 8 6 6 4 10 12 8 8 11 11 14 19 25 12 13 5 10 9 8 6 8 6 4 11 11 16 25 30 27 23 18 17 17 17 17 17 22 29 30 23 14
15 17 11 6 6 9 11 17 15 19 24 7 7 5 9 8 10 11 15 8 9 9 8 19 28 18 11 14 7 7 4 5 8 8 8 14 13 19 24 27 30 27 23 19 18 17 17 17 22 28 32 27 20 14
13 15 13 7 7 10 13 16 22 27 11 7 5 9 12 15 14 13 15 17 15 12 15 23 12 12 17 7 9 6 9 9 7 6 11 10 19 27 29 30 29 26 21 18 17 16 16 20 28 32 30 24 18 13
13 16 15 12 12 12 16 18 29 17 8 5 7 6 13 17 18 18 19 21 16 16 21 18 2 5 8 7 13 12 6 6 6 8 8 9 26 30 32 30 26 23 19 18 16 17 19 23 29 33 27 21 18 8
20 11 19 16 12 14 19 21 20 10 8 7 8 13 15 18 19 15 12 6 9 20 19 8 10 7 7 10 12 9 6 9 9 8 7 15 31 34 32 30 27 23 19 17 15 17 20 24 30 31 26 20 13 4
13 19 20 17 13 10 19 12 8 10 9 13 11 12 14 12 12 5 5 4 4 9 16 7 11 8 7 9 9 10 17 15 12 8 9 19 29 31 30 29 25 20 17 15 15 16 21 25 31 31 24 19 11 5
16 19 19 16 14 8 9 8 8 6 12 8 12 10 8 1 2 6 4 3 1 8 5 6 5 7 6 6 16 17 16 14 11 7 9 16 26 30 28 27 23 20 16 14 14 13 18 25 29 30 25 20 15 12
10 15 16 14 17 6 4 6 6 4 5 4 6 1 1 10 2 8 4 9 12 6 9 6 4 5 12 17 16 17 15 13 11 10 12 15 23 26 27 26 22 20 15 13 12 14 19 24 29 31 27 21 19 15
13 11 15 17 12 4 4 3 7 4 1 1 6 8 8 16 7 7 10 7 5 2 5 7 12 15 16 16 13 12 11 12 11 10 7 12 19 25 27 25 25 20 15 13 11 13 20 22 30 33 29 22 21 15
11 16 14 4 2 3 3 3 1 2 1 5 7 6 9 16 14 6 1 1 4 7 7 9 10 10 8 8 8 8 6 6 5 3 3 7 17 28 27 27 28 24 18 15 12 11 15 22 28 35 33 27 25 17
17 7 0 3 3 4 1 2 4 2 2 5 3 1 6 5 3 3 1 1 3 3 4 3 3 6 6 6 4 2 2 8 8 9 10 10 12 18 25 28 29 28 24 19 15 12 12 21 31 36 35 31 25 19
8 2 2 3 5 4 5 6 6 6 3 11 11 8 6 3 4 2 3 3 3 1 0 3 4 7 7 7 6 3 5 11 17 18 20 20 21 21 25 30 31 27 22 20 18 14 11 12 23 39 39 35 30 24
1 2 2 5 4 5 7 5 7 9 9 10 5 5 5 4 4 4 2 1 1 1 1 3 6 8 8 6 5 5 11 21 24 20 21 25 25 25 24 29 34 31 27 25 21 17 15 14 14 27 40 41 37 31
5 4 3 1 3 3 1 6 3 3 4 4 4 5 3 2 2 1 2 3 1 1 1 2 6 9 8 6 5 7 20 23 13 10 15 20 25 32 32 39 42 37 33 27 20 18 17 18 17 24 38 43 44 35
1 3 3 3 2 2 5 4 5 4 4 4 6 8 6 2 3 4 4 4 5 1 2 4 4 10 9 8 3 8 17 15 11 15 17 17 24 29 34 38 47 39 35 29 22 16 16 17 16 22 32 41 41 40
2 3 1 4 3 1 1 4 3 4 4 5 4 5 5 7 3 5 3 5 5 2 1 2 2 6 10 9 5 9 13 14 6 3 12 17 16 21 26 33 41 39 29 25 21 16 15 13 13 21 32 39 37 35
0 1 1 3 3 2 1 3 3 3 3 2 3 2 1 2 1 1 4 6 9 8 9 8 7 5 5 5 5 7 9 12 8 11 8 15 18 12 24 26 42 50 41 21 21 21 16 11 10 18 29 35 35 33
4 3 3 1 3 3 5 6 6 5 5 4 5 6 8 8 9 16 14 14 15 15 13 13 12 11 12 11 10 8 6 8 8 16 9 15 17 18 17 20 21 29 32 28 33 33 25 15 8 11 26 31 34 35
4 3 4 3 4 2 3 4 7 8 7 7 14 13 14 11 10 9 6 10 12 12 12 13 17 14 13 13 15 15 14 13 11 9 13 5 13 12 12 9 9 10 20 27 29 36 35 26 18 14 15 25 37 37
5 6 7 8 6 5 4 1 2 2 2 4 4 3 3 2 3 1 9 7 5 12 16 19 20 18 18 19 13 11 14 10 12 13 13 18 10 3 2 3 1 8 11 17 20 24 31 29 27 23 19 18 21 30
8 9 9 8 4 3 4 4 3 2 1 2 3 5 5 6 4 5 10 15 10 11 11 14 23 23 21 19 20 20 19 19 18 16 15 20 21 21 19 15 10 12 10 9 12 13 19 28 30 29 26 23 20 18
Wind_Direction_850mb
248 249 249 250 256 272 282 282 289 297 302 306 306 305 301 292 247 191 204 205 146 263 116 85 52 45 82 336 307 43 240 153 232 250 271 154 267 108 262 20 334 333 324 360 300 239 121 48 183 316 59 75 48 19
228 229 236 250 260 264 269 281 290 296 300 305 306 300 285 256 216 192 161 204 199 223 305 224 241 252 268 340 338 34 32 336 8 272 227 290 220 214 354 322 153 315 8 338 6 18 93 68 69 89 75 79 40 25
226 236 233 230 238 254 270 281 286 290 296 302 305 296 271 236 211 190 184 180 173 263 257 242 213 247 237 210 158 308 114 18 250 325 334 351 273 307 272 17 295 144 29 306 298 121 114 119 108 101 98 87 61 43
199 186 195 222 239 256 268 275 280 284 291 302 311 291 260 221 202 182 160 178 168 242 270 138 220 234 231 221 186 186 287 300 261 276 267 279 270 280 358 5 282 37 255 329 293 119 132 136 132 126 105 84 62 64
176 183 199 201 201 255 281 286 284 285 290 298 309 282 236 203 185 172 167 168 180 207 333 285 277 216 223 190 184 176 157 281 257 223 224 233 294 258 209 287 264 134 344 322 31 39 15 116 147 134 108 82 69 91
165 179 209 167 187 254 291 299 289 275 279 295 302 247 192 170 149 131 182 223 193 184 273 256 285 183 186 178 180 193 217 292 285 277 247 237 299 269 253 267 96 105 73 49 85 79 95 127 132 126 111 88 91 114
174 177 187 196 220 305 309 304 294 266 262 291 272 161 156 148 147 133 40 203 187 173 243 258 201 188 173 171 191 203 230 273 284 277 237 267 193 229 269 261 127 119 119 119 117 106 110 137 148 133 113 99 110 125
172 179 197 250 302 314 319 311 292 235 252 284 150 139 136 150 140 103 60 64 164 186 228 268 198 197 183 193 196 207 226 227 209 286 225 236 172 228 259 129 135 141 135 131 127 90 112 141 135 133 118 115 125 132
183 195 213 277 311 339 350 80 106 135 290 140 130 133 128 153 175 196 89 59 178 204 264 222 249 153 175 184 172 170 223 226 141 240 214 230 193 223 119 157 161 159 158 152 129 123 128 139 147 142 131 135 140 143
195 207 232 270 335 109 111 113 105 98 131 132 134 142 166 181 179 168 185 203 220 218 231 251 205 211 196 182 190 176 193 254 229 154 149 235 238 151 113 133 163 165 152 147 139 149 156 157 160 153 146 146 147 147
203 209 224 275 16 128 135 135 139 147 152 140 131 139 153 151 143 188 212 220 192 223 211 230 217 206 200 205 177 226 178 168 244 131 248 191 207 134 177 186 159 164 155 151 137 154 159 169 164 157 150 148 148 144
200 201 198 182 181 160 138 166 173 171 161 157 144 129 145 170 189 223 205 184 226 237 192 208 198 206 164 196 223 176 232 185 242 135 237 222 106 107 133 157 161 157 155 144 149 127 128 139 148 149 151 147 146 144
187 187 182 189 192 175 162 167 173 177 179 145 142 154 187 163 214 215 193 210 226 191 202 201 187 176 165 190 212 202 216 210 126 211 219 82 109 118 132 139 143 145 139 135 122 121 126 130 135 143 147 148 144 135
178 184 186 185 176 161 161 173 159 167 165 148 164 170 215 186 233 215 225 253 212 242 219 200 176 195 169 170 165 226 124 223 223 218 201 112 133 137 137 143 141 138 135 130 127 127 129 129 138 143 148 148 142 129
172 181 188 192 182 172 169 162 183 189 178 179 215 215 219 238 254 259 259 253 242 244 207 194 182 221 170 151 200 143 187 230 229 194 99 108 147 145 141 142 140 136 133 129 130 132 135 140 144 147 151 151 147 132
160 167 185 178 160 163 167 166 173 171 180 189 218 253 266 264 267 252 239 240 219 216 191 195 128 194 207 210 181 187 193 233 120 92 104 131 156 150 144 142 138 135 132 131 130 136 139 146 153 155 154 157 153 137
160 179 176 170 167 161 170 161 161 182 209 220 227 234 243 275 280 284 289 241 221 203 201 154 180 188 236 205 166 169 157 86 99 73 71 148 158 153 149 145 141 138 130 130 131 134 143 150 157 159 161 167 165 172
165 175 171 169 160 157 183 175 164 187 230 227 237 233 233 253 282 292 289 273 256 227 193 174 138 217 215 178 142 132 124 113 94 74 82 147 159 156 155 151 148 146 138 134 137 143 149 158 161 163 166 171 165 138
169 175 173 170 161 145 151 200 199 221 228 237 232 257 264 202 82 89 50 358 334 56 132 336 217 203 107 89 127 117 108 103 102 95 105 151 165 162 160 158 155 153 146 144 142 147 162 164 168 170 167 168 159 135
168 166 169 181 169 163 181 188 195 247 201 198 200 91 254 154 118 136 163 191 150 177 201 215 256 71 111 117 113 107 96 82 86 120 123 148 167 169 169 167 167 166 154 153 149 156 164 169 175 173 173 171 165 149
125 150 140 155 172 209 254 191 202 220 269 116 120 124 74 148 193 179 194 230 204 34 112 103 112 107 106 106 96 92 83 75 70 71 94 155 173 173 178 176 175 171 169 167 167 181 174 180 180 179 182 173 175 153
157 139 119 98 193 222 258 207 267 158 223 95 136 158 220 187 182 172 269 158 78 75 87 86 89 101 113 118 117 105 78 42 8 9 12 147 176 184 185 189 186 180 180 178 175 178 181 183 185 182 182 184 180 166
134 132 188 200 218 199 196 137 192 108 170 105 40 255 182 150 89 131 208 74 101 171 153 94 172 172 152 180 155 102 11 2 328 282 259 240 228 202 192 192 195 189 179 181 172 167 176 187 191 186 186 187 188 186
175 213 226 224 218 177 183 197 171 113 57 202 196 163 137 111 148 204 241 211 156 176 296 296 200 191 187 189 201 238 298 314 309 292 254 238 228 223 206 200 189 191 189 192 179 177 183 179 198 195 191 193 196 195
257 211 238 236 213 218 192 197 182 192 176 197 163 127 128 177 206 211 312 355 307 203 288 258 218 222 230 206 216 275 304 301 299 272 238 231 222 217 206 197 195 188 192 189 188 192 199 195 194 196 195 195 197 200
231 193 218 178 153 243 114 172 152 126 143 138 92 116 158 201 240 232 79 47 117 139 342 283 238 222 216 217 243 294 320 325 295 250 224 220 215 209 208 196 190 189 196 192 201 203 209 205 203 199 196 196 195 197
263 115 170 222 262 249 181 139 137 186 172 166 166 169 172 171 200 121 131 126 87 75 1 310 264 215 222 206 223 341 345 321 267 247 244 240 216 210 209 205 193 194 195 195 202 207 207 204 207 200 193 193 197 201
319 329 73 91 174 184 92 141 169 191 160 171 185 181 165 160 170 122 154 199 184 239 346 293 204 210 212 200 223 310 325 337 326 252 247 216 193 198 199 190 183 177 181 190 197 203 193 197 201 191 188 189 192 200
294 281 304 148 146 157 45 17 45 77 63 21 351 12 343 120 161 248 265 248 238 253 256 257 258 230 246 250 263 282 299 333 336 159 120 172 139 144 165 175 192 200 199 203 202 193 186 186 179 181 185 187 190 193
65 355 296 21 317 54 40 20 347 5 335 313 294 291 300 302 291 281 273 277 274 261 247 242 241 236 236 238 247 262 287 290 334 176 62 37 57 90 118 151 169 184 196 208 202 189 191 196 177 173 182 184 189 192
311 292 277 274 300 31 349 328 312 310 315 312 301 290 283 289 293 310 304 264 241 239 239 237 234 229 244 261 265 262 253 272 253 273 229 348 44 63 116 113 122 152 174 179 186 193 198 196 180 174 176 190 197 200
257 266 297 294 302 296 300 265 253 267 325 336 329 330 331 286 247 324 345 358 299 261 250 241 238 257 273 251 240 249 234 240 243 242 240 224 245 276 341 348 46 131 135 162 178 191 199 195 192 186 187 186 192 207
277 284 279 274 254 243 215 231 216 229 123 356 358 355 352 337 9 346 328 335 328 293 261 252 248 247 245 238 235 239 258 264 256 255 267 254 244 248 249 241 256 218 191 177 180 188 200 204 207 203 195 196 199 208